"startDT [UTC]","vpos","CH4 [ppm]","stdev(CH4) [ppm]","CO2 [ppm]","stdev(CO2) [ppm]","H2O [ppm]","stdev(H2O)","p_LGR [torr]","T_LGR [C]","mt1_LGR [us]","mt2_LGR [us]","T_ECpre [C]","T_EC1 [C]","T_EC2 [C]","p_inlet [hPa]","p_in [hPa]","p_out [hPa]","T_inlet [C]","RH_inlet [%]","dwpt_inlet [C]","T_vent [C]","RH_vent [%]","dwpt_vent [C]","flow_vent [l min-1]","flow_inlet [l min-1]","dwpt_sample [C]","T_room [C]"
2012-11-29 00:00:00,0.0,1.9277,0.0008,402.07,0.20,318.6,29.3,138.06,30.53,24.65,36.41,0.04,-272.75,-272.74,-43,566,-919,25.3,6.0,-14.9,25.3,6.1,-14.7,5.73,2.33,-22.2,30.3
2012-11-29 00:01:00,0.0,1.9274,0.0009,402.08,0.23,319.2,25.1,138.06,30.53,24.66,36.40,0.04,-272.75,-272.75,-42,566,-919,25.3,6.0,-14.9,25.3,6.1,-14.6,5.73,2.36,-22.2,30.3
2012-11-29 00:02:00,0.0,1.9280,0.0009,402.10,0.20,317.6,31.3,138.05,30.53,24.65,36.40,0.04,-272.75,-272.75,-43,566,-919,25.3,6.0,-14.9,25.3,6.1,-14.7,5.73,2.27,-22.2,30.3
2012-11-29 00:03:00,0.0,1.9276,0.0010,401.93,0.22,327.3,28.6,138.05,30.53,24.66,36.41,0.04,-272.75,-272.75,-43,566,-919,25.3,6.0,-14.9,25.3,6.1,-14.6,5.73,2.40,-22.1,30.3
2012-11-29 00:04:00,0.0,1.9274,0.0009,402.00,0.17,325.3,29.2,138.05,30.53,24.66,36.41,0.04,-272.75,-272.75,-42,566,-919,25.3,6.0,-14.9,25.3,6.1,-14.7,5.73,2.26,-22.1,30.3
2012-11-29 00:05:00,0.0,1.9279,0.0009,401.94,0.20,315.0,29.3,138.06,30.54,24.65,36.41,0.04,-272.75,-272.75,-43,566,-919,25.3,5.9,-15.0,25.3,6.1,-14.7,5.73,2.38,-22.1,30.3
2012-11-29 00:06:00,0.0,1.9280,0.0010,402.01,0.20,315.0,37.8,138.05,30.54,24.65,36.41,0.04,-272.75,-272.75,-43,566,-919,25.3,5.9,-15.0,25.3,6.1,-14.7,5.73,2.31,-22.1,30.3
2012-11-29 00:07:00,0.0,1.9276,0.0009,401.93,0.17,325.1,28.9,138.05,30.55,24.65,36.42,0.04,-272.74,-272.75,-43,566,-919,25.3,5.9,-15.0,25.3,6.1,-14.7,5.73,2.32,-22.1,30.3
2012-11-29 00:08:00,0.0,1.9274,0.0009,402.00,0.19,322.9,30.9,138.06,30.55,24.66,36.41,0.04,-272.75,-272.75,-43,566,-919,25.3,5.9,-15.0,25.3,6.1,-14.7,5.73,2.37,-22.1,30.3
2012-11-29 00:09:00,0.0,1.9276,0.0008,402.00,0.20,326.3,29.2,138.05,30.55,24.65,36.41,0.04,-272.75,-272.75,-42,566,-919,25.3,5.9,-15.0,25.3,6.1,-14.7,5.73,2.26,-22.1,30.3
2012-11-29 00:10:00,0.0,1.9275,0.0008,402.04,0.21,317.3,25.5,138.06,30.55,24.66,36.41,0.04,-272.75,-272.75,-43,566,-919,25.3,5.9,-15.0,25.3,6.1,-14.7,5.73,2.40,-22.1,30.3
2012-11-29 00:11:00,0.0,1.9276,0.0010,402.03,0.19,327.5,36.2,138.05,30.55,24.65,36.41,0.04,-272.75,-272.75,-43,566,-919,25.3,5.9,-15.0,25.3,6.1,-14.7,5.73,2.27,-22.1,30.3
2012-11-29 00:12:00,0.0,1.9277,0.0011,401.93,0.20,324.5,31.0,138.05,30.56,24.65,36.42,0.04,-272.75,-272.75,-42,566,-919,25.3,5.9,-15.0,25.3,6.1,-14.7,5.73,2.36,-22.1,30.3
2012-11-29 00:13:00,0.0,1.9276,0.0008,401.98,0.22,320.8,31.0,138.06,30.56,24.66,36.41,0.04,-272.75,-272.75,-43,566,-919,25.3,5.9,-15.0,25.3,6.1,-14.6,5.73,2.33,-22.1,30.3
2012-11-29 00:14:00,0.0,1.9281,0.0008,402.03,0.17,321.7,28.5,138.05,30.57,24.65,36.41,0.04,-272.75,-272.75,-43,566,-919,25.4,5.9,-14.9,25.3,6.1,-14.7,5.73,2.29,-22.0,30.3
2012-11-29 00:15:00,0.0,1.9280,0.0010,401.97,0.21,328.7,32.8,138.06,30.57,24.65,36.41,0.04,-272.75,-272.75,-42,566,-919,25.4,5.9,-14.9,25.3,6.1,-14.7,5.73,2.38,-22.0,30.3
2012-11-29 00:16:00,0.0,1.9277,0.0009,402.12,0.18,325.9,32.0,138.05,30.57,24.65,36.40,0.04,-272.75,-272.75,-43,566,-919,25.4,5.9,-14.9,25.3,6.1,-14.7,5.73,2.26,-22.0,30.4
2012-11-29 00:17:00,0.0,1.9275,0.0009,402.08,0.19,324.8,27.4,138.05,30.57,24.66,36.41,0.04,-272.75,-272.74,-43,566,-919,25.4,5.9,-15.0,25.3,6.1,-14.7,5.73,2.39,-22.0,30.4
2012-11-29 00:18:00,0.0,1.9277,0.0010,402.07,0.19,330.4,30.3,138.05,30.58,24.65,36.41,0.04,-272.75,-272.75,-43,567,-919,25.4,5.9,-14.9,25.4,6.1,-14.6,5.73,2.28,-22.0,30.4
2012-11-29 00:19:00,0.0,1.9275,0.0011,401.92,0.19,328.6,28.7,138.05,30.58,24.66,36.42,0.04,-272.75,-272.75,-43,567,-919,25.4,5.9,-14.9,25.4,6.1,-14.6,5.73,2.36,-22.0,30.4
2012-11-29 00:20:00,0.0,1.9278,0.0009,401.98,0.21,328.2,30.9,138.05,30.58,24.65,36.41,0.04,-272.74,-272.74,-42,567,-919,25.4,5.9,-14.9,25.4,6.1,-14.6,5.73,2.32,-22.0,30.4
2012-11-29 00:21:00,0.0,1.9281,0.0010,402.02,0.18,322.0,31.9,138.05,30.58,24.65,36.41,0.04,-272.74,-272.75,-43,567,-919,25.4,5.9,-14.9,25.4,6.1,-14.6,5.73,2.30,-21.9,30.4
2012-11-29 00:22:00,0.0,1.9276,0.0007,401.96,0.20,327.4,35.7,138.05,30.58,24.65,36.42,0.04,-272.75,-272.75,-43,567,-919,25.4,5.9,-14.9,25.4,6.1,-14.6,5.73,2.38,-21.9,30.4
2012-11-29 00:23:00,0.0,1.9277,0.0009,402.01,0.20,333.9,29.1,138.05,30.59,24.66,36.41,0.04,-272.75,-272.75,-42,567,-919,25.4,5.9,-14.9,25.4,6.1,-14.6,5.73,2.26,-21.9,30.4
2012-11-29 00:24:00,0.0,1.9278,0.0009,401.93,0.18,333.2,26.7,138.05,30.59,24.65,36.42,0.04,-272.74,-272.74,-43,567,-919,25.4,5.9,-14.9,25.4,6.1,-14.6,5.73,2.39,-21.9,30.4
2012-11-29 00:25:00,0.0,1.9281,0.0007,402.01,0.18,323.8,24.9,138.05,30.60,24.65,36.41,0.04,-272.75,-272.75,-43,567,-919,25.4,5.9,-14.9,25.4,6.1,-14.6,5.73,2.27,-21.9,30.4
2012-11-29 00:26:00,0.0,1.9283,0.0009,402.02,0.22,337.7,29.5,138.05,30.60,24.65,36.41,0.04,-272.75,-272.75,-43,567,-919,25.4,5.9,-14.9,25.4,6.1,-14.6,5.73,2.36,-21.9,30.4
2012-11-29 00:27:00,0.0,1.9281,0.0010,402.04,0.24,341.5,31.4,138.05,30.60,24.65,36.41,0.04,-272.74,-272.74,-43,567,-919,25.5,5.9,-14.9,25.5,6.1,-14.6,5.73,2.32,-21.9,30.4
2012-11-29 00:28:00,0.0,1.9282,0.0011,402.06,0.20,337.6,26.4,138.05,30.60,24.65,36.41,0.04,-272.75,-272.75,-42,567,-919,25.5,5.9,-14.9,25.5,6.1,-14.6,5.73,2.31,-21.9,30.4
2012-11-29 00:29:00,0.0,1.9284,0.0008,401.99,0.17,331.8,26.1,138.05,30.61,24.65,36.41,0.04,-272.75,-272.75,-43,567,-919,25.5,5.9,-15.0,25.5,6.1,-14.6,5.73,2.37,-21.9,30.4
2012-11-29 00:30:00,0.0,1.9283,0.0010,401.97,0.24,329.1,32.1,138.05,30.61,24.65,36.41,0.04,-272.75,-272.75,-43,567,-919,25.5,5.9,-15.0,25.5,6.0,-14.7,5.73,2.26,-21.9,30.5
2012-11-29 00:31:00,0.0,1.9284,0.0010,402.05,0.18,345.3,30.1,138.05,30.62,24.65,36.41,0.04,-272.74,-272.75,-43,567,-919,25.4,5.9,-15.0,25.5,6.0,-14.7,5.73,2.40,-21.9,30.4
2012-11-29 00:32:00,0.0,1.9277,0.0009,402.01,0.19,340.8,27.8,138.05,30.62,24.66,36.41,0.04,-272.75,-272.75,-43,567,-919,25.5,5.9,-15.0,25.5,6.0,-14.7,5.73,2.25,-21.9,30.4
2012-11-29 00:33:00,0.0,1.9284,0.0010,402.00,0.17,335.8,32.5,138.05,30.62,24.65,36.41,0.04,-272.75,-272.75,-43,567,-919,25.5,5.8,-15.1,25.5,6.0,-14.8,5.73,2.39,-21.9,30.5
2012-11-29 00:34:00,0.0,1.9287,0.0009,402.04,0.19,344.4,31.7,138.05,30.63,24.65,36.41,0.04,-272.74,-272.75,-43,567,-919,25.5,5.8,-15.1,25.5,6.0,-14.8,5.73,2.28,-21.9,30.5
2012-11-29 00:35:00,0.0,1.9285,0.0008,401.93,0.21,341.1,28.6,138.05,30.63,24.65,36.42,0.04,-272.75,-272.75,-43,567,-919,25.5,5.8,-15.1,25.5,6.0,-14.8,5.73,2.34,-21.8,30.5
2012-11-29 00:36:00,0.0,1.9281,0.0012,401.99,0.17,343.6,34.2,138.05,30.63,24.66,36.41,0.04,-272.75,-272.75,-42,567,-919,25.5,5.8,-15.2,25.5,5.9,-14.9,5.73,2.33,-21.8,30.5
2012-11-29 00:37:00,0.0,1.9281,0.0008,401.97,0.24,340.6,32.1,138.05,30.63,24.66,36.41,0.04,-272.75,-272.75,-43,567,-919,25.5,5.8,-15.2,25.5,5.9,-14.9,5.73,2.29,-21.8,30.5
2012-11-29 00:38:00,0.0,1.9285,0.0011,401.98,0.23,336.8,27.5,138.05,30.63,24.65,36.42,0.04,-272.75,-272.75,-43,567,-919,25.5,5.7,-15.2,25.5,5.9,-14.9,5.73,2.38,-21.8,30.5
2012-11-29 00:39:00,0.0,1.9289,0.0011,401.96,0.22,342.0,23.5,138.05,30.64,24.65,36.41,0.04,-272.75,-272.75,-43,567,-919,25.5,5.7,-15.3,25.5,5.9,-15.0,5.73,2.26,-21.8,30.5
2012-11-29 00:40:00,0.0,1.9282,0.0011,402.01,0.20,341.4,27.4,138.05,30.64,24.66,36.41,0.04,-272.75,-272.75,-43,567,-919,25.5,5.7,-15.3,25.5,5.9,-15.0,5.73,2.40,-21.8,30.5
2012-11-29 00:41:00,0.0,1.9288,0.0008,402.02,0.21,336.2,34.0,138.05,30.64,24.65,36.41,0.04,-272.75,-272.74,-43,567,-919,25.5,5.7,-15.3,25.5,5.8,-15.0,5.73,2.25,-21.8,30.5
2012-11-29 00:42:00,0.0,1.9282,0.0009,402.01,0.18,341.8,36.1,138.05,30.65,24.65,36.41,0.04,-272.75,-272.75,-43,567,-919,25.5,5.7,-15.3,25.5,5.8,-15.0,5.73,2.38,-21.8,30.4
2012-11-29 00:43:00,0.0,1.9285,0.0011,401.97,0.19,349.2,33.0,138.05,30.65,24.65,36.41,0.04,-272.75,-272.75,-43,567,-919,25.5,5.7,-15.4,25.5,5.8,-15.0,5.73,2.28,-21.8,30.5
2012-11-29 00:44:00,0.0,1.9292,0.0014,402.03,0.27,337.3,32.0,138.05,30.66,24.65,36.41,0.04,-272.75,-272.75,-43,567,-919,25.5,5.7,-15.4,25.5,5.8,-15.1,5.73,2.35,-21.7,30.5
2012-11-29 00:45:00,0.0,1.9367,0.0030,402.54,0.24,345.5,33.3,138.05,30.66,24.65,36.41,0.04,-272.75,-272.75,-43,567,-919,25.5,5.6,-15.5,25.5,5.8,-15.2,5.73,2.32,-21.7,30.5
2012-11-29 00:46:00,0.0,1.9368,0.0017,402.59,0.23,340.8,32.7,138.05,30.67,24.65,36.41,0.04,-272.75,-272.75,-43,567,-919,25.5,5.5,-15.7,25.5,5.7,-15.3,5.73,2.31,-21.7,30.5
2012-11-29 00:47:00,0.0,1.9352,0.0011,402.53,0.22,342.7,30.7,138.05,30.67,24.65,36.41,0.04,-272.74,-272.75,-43,568,-919,25.5,5.4,-15.9,25.5,5.6,-15.6,5.73,2.36,-21.7,30.5
2012-11-29 00:48:00,0.0,1.9366,0.0022,402.62,0.25,342.7,29.6,138.05,30.67,24.65,36.41,0.04,-272.75,-272.75,-43,568,-919,25.6,5.3,-16.1,25.5,5.5,-15.8,5.73,2.27,-21.7,30.6
2012-11-29 00:49:00,0.0,1.9380,0.0013,402.62,0.18,350.6,30.9,138.05,30.68,24.65,36.42,0.04,-272.75,-272.75,-43,568,-919,25.6,5.2,-16.3,25.6,5.4,-16.0,5.73,2.38,-21.7,30.6
2012-11-29 00:50:00,0.0,1.9368,0.0014,402.69,0.18,346.6,28.7,138.05,30.68,24.65,36.40,0.04,-272.75,-272.75,-43,568,-919,25.6,5.2,-16.4,25.6,5.3,-16.1,5.73,2.26,-21.7,30.6
2012-11-29 00:51:00,0.0,1.9373,0.0008,402.73,0.16,343.3,26.7,138.05,30.69,24.65,36.41,0.04,-272.75,-272.75,-43,568,-919,25.6,5.1,-16.5,25.6,5.3,-16.2,5.73,2.39,-21.7,30.6
2012-11-29 00:52:00,0.0,1.9377,0.0010,402.79,0.17,351.9,31.2,138.05,30.69,24.65,36.41,0.04,-272.75,-272.75,-43,568,-919,25.6,5.1,-16.6,25.6,5.2,-16.3,5.73,2.25,-21.7,30.6
2012-11-29 00:53:00,0.0,1.9410,0.0011,403.01,0.21,347.2,36.9,138.05,30.69,24.65,36.41,0.04,-272.75,-272.75,-43,568,-919,25.6,5.1,-16.7,25.6,5.2,-16.4,5.73,2.38,-21.7,30.6
2012-11-29 00:54:00,0.0,1.9416,0.0015,402.99,0.18,354.0,32.1,138.05,30.70,24.65,36.41,0.04,-272.75,-272.75,-43,568,-919,25.6,5.0,-16.8,25.6,5.1,-16.5,5.73,2.28,-21.7,30.6
2012-11-29 00:55:00,0.0,1.9427,0.0012,403.18,0.19,341.9,30.9,138.05,30.70,24.66,36.41,0.04,-272.75,-272.75,-43,568,-919,25.6,5.0,-16.9,25.6,5.1,-16.7,5.73,2.34,-21.7,30.6
2012-11-29 00:56:00,0.0,1.9426,0.0011,403.13,0.22,342.2,32.9,138.05,30.70,24.65,36.41,0.04,-272.75,-272.75,-43,568,-919,25.6,4.9,-17.0,25.6,5.0,-16.8,5.73,2.31,-21.7,30.6
2012-11-29 00:57:00,0.0,1.9434,0.0015,403.18,0.17,341.7,32.0,138.05,30.71,24.65,36.42,0.04,-272.75,-272.75,-43,568,-919,25.6,4.9,-17.1,25.6,5.0,-16.9,5.73,2.31,-21.7,30.6
2012-11-29 00:58:00,0.0,1.9441,0.0008,403.25,0.16,351.5,28.6,138.05,30.71,24.66,36.41,0.04,-272.74,-272.75,-43,568,-919,25.6,4.8,-17.3,25.6,4.9,-17.0,5.73,2.35,-21.7,30.6
2012-11-29 00:59:00,0.0,1.9443,0.0010,403.28,0.21,352.0,30.9,138.05,30.72,24.65,36.41,0.04,-272.75,-272.75,-43,568,-919,25.6,4.8,-17.4,25.6,4.9,-17.1,5.73,2.28,-21.7,30.6
2012-11-29 01:00:00,0.0,1.9425,0.0010,403.27,0.20,347.6,31.4,138.05,30.72,24.66,36.41,0.04,-272.75,-272.75,-43,568,-919,25.6,4.7,-17.5,25.6,4.8,-17.2,5.73,2.38,-21.6,30.6
2012-11-29 01:01:00,0.0,1.9443,0.0013,403.32,0.22,344.2,36.0,138.05,30.73,24.65,36.41,0.04,-272.74,-272.75,-43,568,-919,25.7,4.7,-17.6,25.6,4.8,-17.3,5.73,2.25,-21.6,30.6
2012-11-29 01:02:00,0.0,1.9445,0.0014,403.27,0.20,347.4,31.4,138.05,30.73,24.65,36.41,0.04,-272.75,-272.75,-43,568,-919,25.7,4.6,-17.7,25.6,4.8,-17.4,5.73,2.39,-21.6,30.7
2012-11-29 01:03:00,0.0,1.9440,0.0010,403.25,0.19,354.8,32.2,138.05,30.74,24.65,36.41,0.04,-272.75,-272.75,-43,568,-919,25.7,4.6,-17.7,25.6,4.7,-17.4,5.73,2.25,-21.6,30.7
2012-11-29 01:04:00,0.0,1.9444,0.0011,403.26,0.21,347.3,30.1,138.05,30.74,24.65,36.41,0.04,-272.75,-272.75,-43,568,-919,25.7,4.6,-17.8,25.7,4.7,-17.5,5.73,2.39,-21.6,30.7
2012-11-29 01:05:00,0.0,1.9432,0.0012,403.19,0.19,356.7,31.1,138.05,30.74,24.66,36.41,0.04,-272.75,-272.75,-43,568,-919,25.7,4.6,-17.8,25.7,4.7,-17.6,5.73,2.26,-21.6,30.7
2012-11-29 01:06:00,0.0,1.9430,0.0010,403.28,0.21,351.2,32.7,138.05,30.75,24.66,36.41,0.04,-272.75,-272.75,-43,568,-919,25.7,4.6,-17.9,25.7,4.7,-17.6,5.73,2.37,-21.6,30.7
2012-11-29 01:07:00,0.0,1.9422,0.0015,403.18,0.18,350.1,31.3,138.05,30.75,24.66,36.41,0.04,-272.75,-272.75,-43,568,-919,25.7,4.6,-17.9,25.7,4.6,-17.7,5.73,2.29,-21.6,30.7
2012-11-29 01:08:00,0.0,1.9419,0.0014,403.14,0.22,349.4,31.9,138.05,30.75,24.65,36.42,0.04,-272.75,-272.74,-43,568,-919,25.7,4.5,-18.0,25.7,4.6,-17.7,5.73,2.34,-21.6,30.7
2012-11-29 01:09:00,0.0,1.9431,0.0009,403.25,0.21,346.8,33.1,138.05,30.76,24.65,36.41,0.04,-272.74,-272.74,-43,568,-919,25.7,4.5,-18.0,25.7,4.6,-17.7,5.73,2.32,-21.6,30.7
2012-11-29 01:10:00,0.0,1.9424,0.0010,403.23,0.20,347.2,32.5,138.05,30.76,24.65,36.42,0.04,-272.75,-272.75,-43,568,-919,25.7,4.5,-18.0,25.7,4.6,-17.7,5.73,2.31,-21.6,30.7
2012-11-29 01:11:00,0.0,1.9424,0.0010,403.25,0.18,350.6,33.5,138.05,30.77,24.65,36.41,0.04,-272.74,-272.75,-43,569,-919,25.7,4.5,-18.0,25.7,4.6,-17.8,5.73,2.34,-21.6,30.7
2012-11-29 01:12:00,0.0,1.9433,0.0013,403.27,0.17,349.1,30.2,138.05,30.77,24.65,36.42,0.04,-272.75,-272.75,-43,568,-919,25.7,4.5,-18.1,25.7,4.6,-17.8,5.73,2.28,-21.6,30.7
2012-11-29 01:13:00,0.0,1.9423,0.0010,403.25,0.22,348.2,31.0,138.05,30.78,24.65,36.41,0.04,-272.75,-272.75,-43,568,-919,25.7,4.5,-18.1,25.7,4.6,-17.8,5.73,2.37,-21.6,30.7
2012-11-29 01:14:00,0.0,1.9415,0.0010,403.12,0.24,349.3,25.3,138.05,30.78,24.66,36.42,0.04,-272.74,-272.75,-43,569,-919,25.7,4.5,-18.1,25.7,4.6,-17.8,5.73,2.25,-21.6,30.7
2012-11-29 01:15:00,0.0,1.9418,0.0010,403.28,0.16,344.9,28.8,138.05,30.78,24.65,36.41,0.04,-272.74,-272.75,-43,568,-919,25.7,4.5,-18.1,25.7,4.6,-17.8,5.73,2.39,-21.6,30.7
2012-11-29 01:16:00,0.0,1.9420,0.0010,403.29,0.21,354.3,31.2,138.04,30.78,24.65,36.41,0.04,-272.75,-272.75,-43,569,-919,25.7,4.4,-18.1,25.7,4.6,-17.8,5.73,2.25,-21.6,30.7
2012-11-29 01:17:00,0.0,1.9413,0.0010,403.14,0.16,347.3,33.0,138.05,30.79,24.65,36.42,0.04,-272.75,-272.75,-43,569,-919,25.7,4.4,-18.1,25.7,4.6,-17.8,5.73,2.39,-21.7,30.7
2012-11-29 01:18:00,0.0,1.9408,0.0011,403.15,0.21,352.2,34.0,138.05,30.79,24.65,36.42,0.04,-272.74,-272.75,-43,568,-919,25.7,4.4,-18.2,25.7,4.6,-17.8,5.73,2.26,-21.7,30.7
2012-11-29 01:19:00,0.0,1.9416,0.0013,403.26,0.22,349.2,30.7,138.04,30.80,24.66,36.41,0.04,-272.75,-272.75,-43,569,-919,25.8,4.4,-18.1,25.7,4.6,-17.8,5.73,2.36,-21.7,30.7
2012-11-29 01:20:00,0.0,1.9420,0.0010,403.19,0.24,349.0,33.9,138.04,30.80,24.65,36.42,0.04,-272.75,-272.75,-43,569,-919,25.8,4.4,-18.1,25.7,4.6,-17.8,5.73,2.29,-21.6,30.7
2012-11-29 01:21:00,0.0,1.9427,0.0008,403.17,0.24,349.1,32.2,138.04,30.81,24.65,36.42,0.04,-272.75,-272.74,-43,569,-919,25.8,4.4,-18.1,25.7,4.5,-17.9,5.73,2.34,-21.6,30.7
2012-11-29 01:22:00,0.0,1.9425,0.0011,403.20,0.23,348.9,33.2,138.04,30.81,24.65,36.42,0.04,-272.74,-272.75,-43,569,-919,25.8,4.4,-18.1,25.8,4.5,-17.9,5.73,2.32,-21.6,30.7
2012-11-29 01:23:00,0.0,1.9430,0.0009,403.34,0.22,344.8,29.0,138.05,30.81,24.65,36.41,0.04,-272.75,-272.75,-43,569,-919,25.8,4.4,-18.1,25.8,4.5,-17.9,5.73,2.30,-21.6,30.8
2012-11-29 01:24:00,0.0,1.9431,0.0009,403.32,0.19,346.5,30.3,138.04,30.82,24.65,36.41,0.04,-272.74,-272.75,-43,569,-919,25.8,4.4,-18.2,25.8,4.5,-17.9,5.73,2.35,-21.6,30.8
2012-11-29 01:25:00,0.0,1.9436,0.0011,403.31,0.20,354.5,31.6,138.04,30.83,24.65,36.41,0.04,-272.75,-272.75,-43,569,-919,25.8,4.4,-18.2,25.8,4.5,-17.9,5.73,2.27,-21.6,30.8
2012-11-29 01:26:00,0.0,1.9438,0.0011,403.30,0.21,350.0,27.9,138.04,30.83,24.65,36.42,0.04,-272.75,-272.75,-43,569,-919,25.8,4.4,-18.2,25.8,4.5,-17.9,5.73,2.38,-21.6,30.8
2012-11-29 01:27:00,0.0,1.9445,0.0010,403.43,0.25,345.2,31.1,138.04,30.83,24.65,36.40,0.04,-272.74,-272.75,-43,569,-919,25.8,4.4,-18.1,25.8,4.5,-17.9,5.73,2.25,-21.6,30.7
2012-11-29 01:28:00,0.0,1.9445,0.0008,403.28,0.20,350.1,34.7,138.04,30.84,24.66,36.41,0.04,-272.74,-272.74,-43,569,-919,25.8,4.4,-18.2,25.8,4.5,-17.9,5.73,2.39,-21.6,30.8
2012-11-29 01:29:00,0.0,1.9445,0.0009,403.30,0.21,352.2,29.0,138.04,30.84,24.65,36.41,0.04,-272.75,-272.75,-43,569,-919,25.9,4.4,-18.1,25.8,4.5,-17.9,5.73,2.25,-21.6,30.8
2012-11-29 01:30:00,0.0,1.9444,0.0009,403.20,0.22,355.0,29.5,138.04,30.85,24.65,36.42,0.04,-272.75,-272.75,-43,569,-919,25.8,4.4,-18.1,25.8,4.5,-17.9,5.73,2.38,-21.6,30.8
2012-11-29 01:31:00,0.0,1.9451,0.0008,403.22,0.16,348.7,28.8,138.04,30.85,24.65,36.42,0.04,-272.75,-272.75,-43,569,-919,25.8,4.4,-18.1,25.8,4.5,-17.9,5.73,2.25,-21.7,30.8
2012-11-29 01:32:00,0.0,1.9450,0.0010,403.34,0.20,359.0,29.6,138.04,30.86,24.65,36.41,0.04,-272.75,-272.75,-43,569,-919,25.8,4.4,-18.1,25.8,4.5,-17.9,5.73,2.38,-21.7,30.8
2012-11-29 01:33:00,0.0,1.9450,0.0009,403.36,0.19,347.0,27.7,138.04,30.87,24.65,36.42,0.04,-272.75,-272.75,-43,569,-919,25.8,4.4,-18.2,25.8,4.5,-17.9,5.73,2.26,-21.7,30.8
2012-11-29 01:34:00,0.0,1.9454,0.0009,403.25,0.21,348.6,30.5,138.04,30.87,24.66,36.42,0.04,-272.75,-272.75,-43,569,-919,25.9,4.4,-18.2,25.8,4.5,-17.9,5.73,2.36,-21.7,30.8
2012-11-29 01:35:00,0.0,1.9463,0.0009,403.51,0.22,343.2,32.2,138.04,30.87,24.65,36.41,0.04,-272.75,-272.74,-43,569,-919,25.9,4.4,-18.2,25.9,4.5,-18.0,5.73,2.28,-21.7,30.8
2012-11-29 01:36:00,0.0,1.9465,0.0009,403.50,0.22,348.5,31.2,138.04,30.88,24.66,36.41,0.04,-272.75,-272.75,-43,569,-919,25.9,4.4,-18.2,25.9,4.5,-18.0,5.73,2.34,-21.7,30.8
2012-11-29 01:37:00,0.0,1.9496,0.0011,403.48,0.21,341.3,33.9,138.04,30.88,24.65,36.41,0.04,-272.75,-272.75,-43,569,-919,25.9,4.4,-18.2,25.9,4.5,-18.0,5.73,2.30,-21.7,30.8
2012-11-29 01:38:00,0.0,1.9511,0.0010,403.51,0.25,354.2,33.6,138.04,30.89,24.65,36.41,0.04,-272.74,-272.75,-43,569,-919,25.9,4.4,-18.2,25.9,4.5,-18.0,5.73,2.32,-21.7,30.8
2012-11-29 01:39:00,0.0,1.9490,0.0013,403.43,0.23,351.6,34.9,138.04,30.89,24.66,36.41,0.04,-272.74,-272.75,-43,569,-919,25.9,4.4,-18.2,25.9,4.5,-18.0,5.73,2.33,-21.7,30.8
2012-11-29 01:40:00,0.0,1.9501,0.0012,403.38,0.19,340.0,28.4,138.04,30.89,24.65,36.42,0.04,-272.75,-272.75,-43,569,-919,25.9,4.4,-18.3,25.9,4.5,-18.0,5.73,2.29,-21.7,30.8
2012-11-29 01:41:00,0.0,1.9477,0.0012,403.31,0.18,334.2,29.9,138.04,30.90,24.65,36.42,0.04,-272.75,-272.75,-43,569,-919,25.9,4.4,-18.3,25.9,4.4,-18.0,5.73,2.35,-21.7,30.8
2012-11-29 01:42:00,0.0,1.9459,0.0011,403.39,0.18,339.8,30.6,138.04,30.91,24.65,36.41,0.04,-272.74,-272.75,-43,569,-919,25.9,4.4,-18.3,25.9,4.4,-18.0,5.73,2.28,-21.7,30.8
2012-11-29 01:43:00,0.0,1.9463,0.0008,403.27,0.19,347.8,34.8,138.04,30.91,24.65,36.42,0.04,-272.74,-272.75,-43,569,-919,25.9,4.4,-18.3,25.9,4.5,-18.0,5.73,2.37,-21.7,30.8
2012-11-29 01:44:00,0.0,1.9447,0.0010,403.32,0.20,354.4,27.0,138.04,30.92,24.66,36.41,0.04,-272.75,-272.75,-43,569,-919,25.9,4.4,-18.2,25.9,4.4,-18.0,5.73,2.26,-21.7,30.9
2012-11-29 01:45:00,0.0,1.9464,0.0009,403.31,0.23,346.7,29.0,138.04,30.92,24.65,36.42,0.04,-272.75,-272.74,-43,569,-919,25.9,4.4,-18.3,25.9,4.5,-18.0,5.73,2.38,-21.7,30.9
2012-11-29 01:46:00,0.0,1.9459,0.0014,403.28,0.22,346.7,31.1,138.04,30.93,24.65,36.42,0.04,-272.75,-272.75,-43,569,-919,25.9,4.4,-18.2,25.9,4.4,-18.0,5.73,2.25,-21.8,30.9
2012-11-29 01:47:00,0.0,1.9454,0.0009,403.31,0.19,348.2,29.8,138.04,30.93,24.66,36.42,0.04,-272.75,-272.75,-43,569,-919,25.9,4.4,-18.2,25.9,4.4,-18.0,5.73,2.39,-21.7,30.9
2012-11-29 01:48:00,0.0,1.9467,0.0010,403.48,0.23,344.3,33.8,138.04,30.94,24.65,36.41,0.04,-272.75,-272.74,-43,570,-919,25.9,4.4,-18.2,25.9,4.4,-18.0,5.73,2.24,-21.7,30.9
2012-11-29 01:49:00,0.0,1.9460,0.0012,403.43,0.21,348.0,35.0,138.04,30.94,24.66,36.41,0.04,-272.75,-272.74,-43,569,-919,25.9,4.3,-18.3,25.9,4.4,-18.0,5.73,2.38,-21.7,30.9
2012-11-29 01:50:00,0.0,1.9433,0.0010,403.39,0.18,348.8,28.4,138.04,30.95,24.66,36.41,0.04,-272.75,-272.75,-43,569,-919,26.0,4.3,-18.3,25.9,4.4,-18.0,5.73,2.24,-21.8,30.9
2012-11-29 01:51:00,0.0,1.9434,0.0010,403.40,0.22,341.5,30.8,138.04,30.95,24.65,36.41,0.04,-272.75,-272.75,-43,569,-919,26.0,4.3,-18.3,25.9,4.4,-18.0,5.73,2.38,-21.7,30.9
2012-11-29 01:52:00,0.0,1.9423,0.0010,403.40,0.22,341.5,29.7,138.04,30.95,24.66,36.41,0.04,-272.75,-272.75,-43,570,-919,26.0,4.3,-18.3,25.9,4.4,-18.1,5.73,2.26,-21.8,30.9
2012-11-29 01:53:00,0.0,1.9426,0.0009,403.40,0.23,337.5,28.5,138.04,30.96,24.65,36.41,0.04,-272.75,-272.75,-43,570,-919,26.0,4.3,-18.3,25.9,4.4,-18.1,5.73,2.36,-21.8,31.0
2012-11-29 01:54:00,0.0,1.9426,0.0011,403.36,0.21,341.6,27.6,138.04,30.97,24.65,36.41,0.04,-272.75,-272.76,-43,570,-919,26.0,4.3,-18.3,25.9,4.4,-18.1,5.73,2.27,-21.8,31.0
2012-11-29 01:55:00,0.0,1.9428,0.0011,403.33,0.21,343.3,30.9,138.04,30.97,24.65,36.42,0.04,-272.73,-272.74,-43,570,-919,26.0,4.3,-18.3,25.9,4.4,-18.1,5.73,2.35,-21.8,31.0
2012-11-29 01:56:00,0.0,1.9419,0.0009,403.29,0.25,338.5,34.2,138.04,30.98,24.65,36.42,0.04,-272.76,-272.75,-43,570,-919,26.0,4.3,-18.3,26.0,4.4,-18.0,5.73,2.28,-21.8,31.0
2012-11-29 01:57:00,0.0,1.9424,0.0010,403.34,0.20,338.8,30.4,138.04,30.98,24.66,36.42,0.04,-272.76,-272.73,-43,570,-919,26.0,4.3,-18.3,25.9,4.4,-18.1,5.73,2.34,-21.8,31.0
2012-11-29 01:58:00,0.0,1.9426,0.0011,403.38,0.22,335.3,33.0,138.04,30.98,24.65,36.41,0.04,-272.74,-272.74,-43,570,-919,26.0,4.3,-18.3,25.9,4.4,-18.1,5.73,2.30,-21.8,31.0
2012-11-29 01:59:00,0.0,1.9419,0.0010,403.41,0.24,333.4,32.6,138.04,30.99,24.66,36.41,0.04,-272.75,-272.75,-43,570,-919,26.0,4.3,-18.4,25.9,4.4,-18.1,5.73,2.32,-21.8,31.0
2012-11-29 02:00:00,0.0,1.9418,0.0010,403.37,0.20,331.3,35.1,138.04,31.00,24.65,36.41,0.04,-272.75,-272.75,-43,570,-919,26.0,4.3,-18.4,26.0,4.4,-18.0,5.73,2.31,-21.8,31.0
2012-11-29 02:01:00,0.0,1.9419,0.0011,403.33,0.23,340.4,29.6,138.04,31.00,24.66,36.41,0.04,-272.75,-272.75,-43,570,-919,26.0,4.3,-18.4,26.0,4.4,-18.0,5.73,2.31,-21.8,31.0
2012-11-29 02:02:00,0.0,1.9419,0.0010,403.31,0.20,335.8,37.3,138.04,31.01,24.65,36.42,0.04,-272.74,-272.75,-43,570,-919,26.0,4.3,-18.3,26.0,4.4,-18.0,5.73,2.32,-21.8,31.0
2012-11-29 02:03:00,0.0,1.9419,0.0009,403.34,0.18,340.3,31.1,138.04,31.01,24.66,36.41,0.04,-272.75,-272.75,-43,570,-919,26.0,4.3,-18.3,26.0,4.4,-18.0,5.73,2.30,-21.8,31.0
2012-11-29 02:04:00,0.0,1.9421,0.0009,403.32,0.23,341.7,37.2,138.04,31.02,24.65,36.42,0.04,-272.75,-272.75,-43,570,-919,26.0,4.3,-18.3,26.0,4.4,-18.0,5.73,2.33,-21.8,31.0
2012-11-29 02:05:00,0.0,1.9416,0.0009,403.24,0.20,337.5,34.0,138.04,31.02,24.66,36.42,0.04,-272.74,-272.74,-43,570,-919,26.0,4.3,-18.3,26.0,4.4,-18.0,5.73,2.28,-21.8,31.0
2012-11-29 02:06:00,0.0,1.9422,0.0009,403.31,0.24,341.4,30.3,138.04,31.03,24.65,36.41,0.04,-272.75,-272.75,-43,570,-919,26.0,4.3,-18.3,26.0,4.4,-18.0,5.73,2.35,-21.8,31.0
2012-11-29 02:07:00,0.0,1.9418,0.0011,403.34,0.21,340.8,32.0,138.04,31.03,24.65,36.41,0.04,-272.75,-272.75,-43,570,-919,26.1,4.3,-18.3,26.0,4.4,-18.0,5.73,2.27,-21.8,31.0
2012-11-29 02:08:00,0.0,1.9421,0.0010,403.29,0.17,341.5,31.3,138.04,31.04,24.65,36.42,0.04,-272.74,-272.75,-43,570,-919,26.0,4.3,-18.3,26.0,4.4,-18.0,5.73,2.36,-21.8,31.0
2012-11-29 02:09:00,0.0,1.9416,0.0010,403.19,0.25,341.4,33.6,138.04,31.04,24.65,36.42,0.04,-272.74,-272.75,-43,570,-919,26.1,4.3,-18.3,26.0,4.4,-18.0,5.73,2.27,-21.8,31.0
2012-11-29 02:10:00,0.0,1.9422,0.0011,403.18,0.22,342.2,34.6,138.04,31.05,24.65,36.42,0.04,-272.75,-272.75,-43,570,-919,26.1,4.3,-18.3,26.0,4.4,-18.0,5.73,2.36,-21.8,31.1
2012-11-29 02:11:00,0.0,1.9415,0.0009,403.27,0.20,341.0,33.6,138.04,31.05,24.65,36.41,0.04,-272.74,-272.75,-43,570,-919,26.1,4.3,-18.3,26.0,4.4,-18.0,5.73,2.25,-21.8,31.0
2012-11-29 02:12:00,0.0,1.9414,0.0011,403.32,0.22,342.5,29.7,138.04,31.06,24.65,36.41,0.04,-272.74,-272.75,-43,570,-919,26.1,4.3,-18.3,26.1,4.4,-18.0,5.73,2.38,-21.8,31.0
2012-11-29 02:13:00,0.0,1.9413,0.0011,403.20,0.19,341.4,36.8,138.04,31.07,24.66,36.42,0.04,-272.75,-272.75,-43,570,-919,26.1,4.3,-18.2,26.0,4.4,-18.0,5.73,2.25,-21.8,31.1
2012-11-29 02:14:00,0.0,1.9416,0.0011,403.21,0.22,335.6,34.2,138.04,31.07,24.66,36.42,0.04,-272.75,-272.75,-43,570,-919,26.1,4.3,-18.2,26.1,4.4,-18.0,5.73,2.38,-21.8,31.1
2012-11-29 02:15:00,0.0,1.9412,0.0012,403.22,0.20,334.1,31.4,138.04,31.08,24.65,36.42,0.04,-272.74,-272.75,-43,570,-919,26.1,4.3,-18.2,26.1,4.4,-18.0,5.73,2.25,-21.9,31.1
2012-11-29 02:16:00,0.0,1.9415,0.0010,403.21,0.20,335.3,30.3,138.04,31.08,24.65,36.42,0.04,-272.75,-272.75,-43,570,-919,26.1,4.3,-18.2,26.1,4.4,-17.9,5.73,2.38,-21.8,31.1